Showing default

LEO 1, 43113

Orbit data source: Space-Track

LEO 1, 43113 is a payload satellite owned by Telesat (Loral) (US) in SSO that was launched on Fri, 12 Jan 2018 UTC via a PSLV-XL launch vehicle from the Sirharikota (SRI). Payload-class satellites include a variety of spacecraft equipped with specific instruments for various scientific and technological missions. These include communications satellites like Starlink; space stations such as the ISS; scientific satellites like the Hubble; Earth observation satellites from companies like Planet Labs, Umbra, and HawkEye 360; GPS; miniature CubeSats for education and research; and military/defense satellites.

Loading next visibility...
Identifier
43113, 2018-004C
Orbit
SSO
Last TLE update
13 hours ago
Origin
Manufacturer
SSTL (Astrium)
Mission
Partially operational Commercial Communications
Bus & Motor
SSTL-42, Unknown motor
Mass
~100 kg wet, ~100 kg dry
Launch date (UTC)
2018-01-12 (7 years ago)
Launch vehicle
PSLV-XL
Launch site
Sirharikota (SRI)
Object type
Payload
Rocket body
Debris
Shape & HBR
Box + 1 Dish, 1 m
Radar Cross Section
0.735 m², Medium (>0.1 m² and < 1m²)

Expand to show TLE details & history

TLE from 13 hours ago
0 LEO 1
1 43113U 18004C   25182.62032549  .00002806  00000-0  20224-3 0  9993
2 43113  99.2765  50.4248 0361028  73.0842 290.9603 14.65103356386100
Epoch: 2025-07-01T14:53Z
TLE epoch observation values (Epoch: 2025-07-01T14:53:16.122Z)
Latitude
-0.00011°
Longitude
-92.80552°
Altitude
596.745 km
Speed
7.606 km/s
True Right ascension
03h 21m 41s
True Declination
0° 00' 00"
Sunlit
Object was in daylight at epoch
Visualization orbit readout
Latitude
68.44321°
Longitude
-116.44992°
Altitude
433.809 km
Speed
7.795 km/s
Apparent Right ascension
03h 15m 13s
Apparent Declination
17° 26' 49"
Sunlit
Object is in daylight
Visualization observer readout
Local Sidereal Time
15:59:32
Azimuth
12.443° NNE
Elevation
-31.714°
Doppler factor
1
Orbital elements
Apogee altitude
928.462 km
Perigee altitude
419.268 km
Semi-major axis
7,052.002 km
Eccentricity
0.0361
Inclination
99.2765°
RAAN
50.4248°
Arg. of periapsis
73.0842°
True anomaly
Unknown
Mean anomaly
290.9603°
Eccentric anomaly
Unknown
Mean motion
3.665 °/min
Orbital period
98.23 mins
BSTAR
0.00020224
Loading maneuver chart data...
Loading SW <> Apogee altitude chart data...

LEO 1 Visibility forecast

Observer location: undefined°, undefined°

Span
Click to sort rows by Start time (UTC) header in descending order
Start Az.
Max El. time (UTC)
Max El. Az.
Max El.
End time (UTC)
End Az.
7 mins2025-07-02 04:32:09.042Z1.541° NNE2025-07-02 04:36:09.042Z263.025° W35.746°2025-07-02 04:39:09.042Z215.374° SW
5 mins2025-07-02 15:36:09.042Z196.224° SSW2025-07-02 15:38:09.042Z238.497° WSW28.937°2025-07-02 15:41:09.042Z322.88° NNW
5 mins2025-07-03 03:31:09.042Z53.542° ENE2025-07-03 03:33:09.042Z97.584° ESE25.772°2025-07-03 03:36:09.042Z154.025° SSE
|